Location: Bremen
(53.0793°N, 8.8017°E)
Time: 11:43:18
(UTC+02:00)

Transit 2A Rocket - Pass Details

Date: 26 June 2024
Orbit: 582 x 910 km, 66.7° (Epoch: 19 July)

Event Time Altitude Azimuth Distance (km) Brightness Sun altitude
Rises 03:46:36 0° 317° (NW) 3,459 8.6 -7.8°
Reaches altitude 10° 03:49:09 10° 324° (NW) 2,552 8.0 -7.6°
Maximum altitude 03:54:56 47° 38° (NE) 1,184 6.6 -7.2°
Drops below altitude 10° 04:00:48 10° 112° (ESE) 2,596 7.9 -6.7°
Sets 04:03:25 0° 118° (ESE) 3,524 8.5 -6.4°
